Regional Weather Roundup
Issued by NWS Wakefield, VA

Home | Current Version | Previous Version | Graphics & Text | Print | Product List | Glossary On
Versions: 1 2 3 4 5 6 7 8 9 10 11 12 13 14 15 16 17 18 19 20 21 22 23 24 25 26 27
000
ASUS41 KAKQ 180315
RWRAKQ

REGIONAL WEATHER ROUNDUP
NATIONAL WEATHER SERVICE WAKEFIELD VA
1000 PM EST TUE JAN 17 2017

Note: "fair" indicates few or no clouds below 12,000 feet with no
significant weather and/or obstructions to visibility. * = Denotes
station may not report precipitation (e.g., rain,snow,etc.),
thunder or fog.

VAZ042-051-052>054-056-180400-
NORTHERN VIRGINIA

CITY           SKY/WX    TMP DP  RH WIND       PRES   REMARKS
WASH NATIONAL  CLOUDY    51  51 100 S3        29.92F FOG
DULLES         CLOUDY    52  50  93 SW3       29.91F
FORT BELVOIR   CLOUDY    52  51  95 SW3       29.91F
QUANTICO       CLOUDY    57  54  89 W8G18     29.92F
FREDERICKSBRG* CLOUDY    58  57  97 SW14G22   29.92F
STAFFORD*      CLOUDY    55  54  95 S5        29.96F
WARRENTON      CLOUDY    55  50  82 SW8       29.90F
CULPEPER*      CLOUDY    55  52  92 SW5       29.93F
MANASSAS*      NOT AVBL
LEESBURG*      CLOUDY    46  46 100 CALM      29.92F FOG
WINCHESTER     FOG       39  39 100 CALM      29.90F VSB 1/4
FRONT ROYAL*   CLOUDY    43  43 100 NE3       29.89R VSB<1/4
LURAY*         FAIR      55  54  94 SW13      29.89F
$$

VAZ048-049-060>072-079>083-180400-
CENTRAL AND SOUTH CENTRAL VIRGINIA

CITY           SKY/WX    TMP DP  RH WIND       PRES   REMARKS
RICHMOND       CLOUDY    56  54  93 SW9       29.98F
CHESTERFIELD*  CLOUDY    57  41  54 SW5       30.00F
PETERSBURG*    CLOUDY    55  54  94 S5        30.00F
HANOVER        CLOUDY    57  52  83 S8        29.98F
TAPPAHANNOCK*  CLOUDY    58  52  79 S10       29.97F
QUINTON*       CLOUDY    56  56  97 MISG      29.99F
CHARLOTTSVILLE CLOUDY    55  52  89 S8        29.92F
GORDONSVILLE*  CLOUDY    55  53  93 SW13G18   29.92F
ORANGE*          N/A     55  55 100 S8        29.94F
LOUISA*        CLOUDY    61  55  82 S8        29.93F
BUMPASS*       CLOUDY    56  55  94 SW9G17    29.95F
FARMVILLE*     CLOUDY    59  56  89 SW12G18   29.96F
CREWE*         FAIR      57  57 100 SW3       29.98F
FORT PICKETT*  MOCLDY    56  53  88 SW10      29.99F
CHASE CITY*    FAIR      56  54  94 SW5       30.01S
CLARKSVILLE*   FAIR      57  57 100 SW8       30.01F
SOUTH HILL*    CLOUDY    56  55  99 SW7       30.06F
LAWRENCEVILLE* FAIR      56  55  93 SW5       30.01F
EMPORIA*       CLOUDY    55  54  94 S3        30.03F
$$

VAZ088>098-180400-
SOUTHEAST VIRGINIA

CITY           SKY/WX    TMP DP  RH WIND       PRES   REMARKS
NORFOLK        LGT RAIN  59  54  83 SW16      30.02F
VIRGINIA BEACH CLOUDY    59  53  80 SW13      30.02F
NORFOLK NAVAL  CLOUDY    59  54  83 SW8       30.03F
WEST POINT*    CLOUDY    56  53  88 S3        30.00F
SALUDA*        CLOUDY    58  55  88 SW8       29.98F
NEWPORT NEWS   CLOUDY    57  54  89 SW12      30.01F
LANGLEY AFB    CLOUDY    58  55  90 SW12      30.01F
FORT EUSTIS    CLOUDY    57  53  86 VRB5      29.99F
WILLIAMSBURG*  CLOUDY    59  54  82 SW8       30.01F
HR EXEC AP*    MOCLDY    57  54  88 SW10      30.01F
FRANKLIN*      CLOUDY    57  54  89 S5        30.03F
US460-WAKEFLD  CLOUDY    57  54  89 VRB6      30.01F
$$

VAZ020-022-025-037-045-180400-
WEST CENTRAL AND SOUTHWEST VIRGINIA

CITY           SKY/WX    TMP DP  RH WIND       PRES   REMARKS
STAUNTON*      CLOUDY    55  51  86 S10       29.94F
WAYNESBORO*    FAIR      58  52  80 W6        29.93F
HOT SPRINGS VA LGT RAIN  54  54 100 W14G20    29.96F VSB 1/4
LYNCHBURG      MOCLDY    55  53  93 SW8       29.99F
DANVILLE       MOCLDY    54  54 100 SW7       30.03F
SOUTH BOSTON*  FAIR      57  56  95 SW8       30.02S
MARTINSVILLE   CLOUDY    53  51  95 CALM      30.05F FOG
ROANOKE        CLOUDY    52  51  97 CALM      29.99F
BLACKSBURG     CLOUDY    57  55  92 SW5       30.01F
DUBLIN*        CLOUDY    60  57  91 SW20      30.00F
MARION*        RAIN      58  57  96 W20G25    30.03F
HILLSVILLE*    CLOUDY    56  54  94 CALM      30.01F
RICHLANDS*     DRIZZLE  N/A N/A N/A SW10G21   30.03S
WISE*          CLOUDY    59  59 100 SW22G29   30.03F
ABINGDON*      CLOUDY    60  59  99 W12       30.04S
$$

MDZ021>025-VAZ099-100-180400-
SOUTHERN MARYLAND AND THE DELMARVA PENINSULA

CITY           SKY/WX    TMP DP  RH WIND       PRES   REMARKS
PATUXENT RIVER CLOUDY    56  52  86 SW14G22   29.92F
BAY BRIDGE APT CLOUDY    45  43  93 NW3       29.93S FOG
LEONARDTOWN    CLOUDY    54  50  87 SW12G17   29.93F
DOVER          CLOUDY    43  43 100 NE3       29.92F FOG
GEORGETOWN     CLOUDY    49  48  97 CALM      29.94F FOG
EASTON         NOT AVBL
CAMBRIDGE      CLOUDY    50  50 100 S3        29.92F
SALISBURY      CLOUDY    55  52  89 SW14      29.95F
OCEAN CITY     CLOUDY    49  49 100 SW5       29.96F
WALLOPS ISLAND CLOUDY    59  55  87 SW15G29   29.96F
ACCOMACK*      CLOUDY    59  54  83 SW16G22   29.99F
$$

NCZ012>017-030>032-180400-
NORTH CENTRAL AND EASTERN NORTH CAROLINA

CITY           SKY/WX    TMP DP  RH WIND       PRES   REMARKS
ROANOKE RAPIDS FAIR      57  55  94 SW12      30.02F
RALEIGH        CLOUDY    60  56  86 SW12      30.05F
ELIZABETH CITY CLOUDY    56  55  97 S10       30.05F
AHOSKIE*       LGT RAIN  57  55  93 S5        30.03F
EDENTON*       CLOUDY    60  56  85 CALM      30.06F
CURRITUCK*     CLOUDY    57  57 100 SW7       30.05F
KILL DEVIL HLS NOT AVBL
MANTEO         CLOUDY    56  56 100 S6        30.09F
CAPE HATTERAS  CLOUDY    62  59  90 SW9       30.11S FOG
TARBORO*       NOT AVBL
GOLDSBORO      MOCLDY    62  60  94 VRB6      30.06F
WASHINGTON     CLOUDY    61  55  81 S8        30.08F
GREENVILLE     LGT RAIN  63  57  82 SW12      30.07F
NEW BERN       PTCLDY    60  56  86 SW8       30.12F
WILMINGTON     MOCLDY    60  59  96 SW9       30.14F
$$

VAZ048-180400-
ELSEWHERE

CITY           SKY/WX    TMP DP  RH WIND       PRES   REMARKS
HARRISBURG PA  DRZL/FOG  39  39 100 NE6       29.94S VSB 1
BALTIMORE      FOG       44  44 100 NE5       29.93S VSB 1/4
ANNAPOLIS      FOG       45  44  97 CALM      29.93S VSB 3/4
ANDREWS AFB    CLOUDY    52  51  96 SW3       29.90F
PHILADELPHIA   CLOUDY    43  42  97 NE5       29.96F FOG
HENDERSON NC   CLOUDY    55  53  92 SW9       30.02F
GREENSBORO     CLOUDY    57  56  96 SW10      30.03F
ROCKY MOUNT    CLOUDY    60  57  89 SW8       30.06F
$$

VAZ100-180400-
MARINE

STATION/POSITION TIME  TEMP    WIND        PRES    WAVE   SWELL
                       AIR SEA DIR/SP/G            HT/PER HT/PER
                 (UTC) (F)     (DEG/KT/KT) (MB)    (FT/S) (FT/S)
CAPE MAY NJ      0242   46 40  150/  5/  7 1013.6F
LEWES DE         0248          210/  5/  9 1013.5F
OCEAN-CITY-INLET 0248          210/  8/  9 1015.0F
WACHAPREAGUE VA  0236   58 46  230/  8/ 14 1015.7R
THOMAS POINT MD  0300   42 39     CALM       N/A
GOOSES REEF MD   0300   47     200/  6/  8 1014.0    1
COVE POINT MD    0236   54     240/  5/  9 1014.3F
SOLOMONS ISLAND  0248          230/ 13/ 19   N/A
BISHOPS HEAD MD  0242   50 42  220/ 12/ 14 1014.5F
PINEY POINT MD   0248          250/  9/ 12   N/A
POTOMAC MD       0300   52 40  240/ 19/ 21 1012.6    2/ 3
CAMBRIDGE MD     0242   51 39  190/  4/  6 1012.8F
LEWISETTA VA     0236   57 44  240/ 17/ 21 1013.8F
RAPPAHANNOCK LGT 0248          190/ 17/ 18 1016.2F
STINGRAY PT      0250   50     240/  8/  8 1015.9F
YORK RVR RNG VA  0236   54     250/ 12/ 14 1015.5F
YORKTOWN VA      0236   58 43  230/ 11/ 15 1015.6F
JAMESTOWN VA     0300   56 44  220/  6/ 10   N/A     0
DOMINION TERM VA 0236   52     230/  5/  7 1016.6F
KIPTOPEKE VA     0248          230/  8/  9   N/A
CHES BAY BRIDGE  0236   57 42  230/ 15/ 18 1016.0F
CAPE HENRY VA    0236   59     210/  9/ 14   N/A
WILLOUBY STN VA  0236   53     240/ 12/ 13 1017.2F
S CRANEY ISL VA  0236   59     230/  9/ 13 1016.3F
CAPE HENRY BUOY  0242      45                N/A     2/ 8
OFFSHORE WE BUOY 0251      49                N/A     2/ 3
64NM E OF VA BCH 0250   58 57  230/ 21/ 25 1017.0R   4/ 4   2/ 8
DUCK PIER NC     0236   57 44  200/ 13/ 16 1017.4F
44100 DUCK FRF   0205      47                N/A     2/ 8
44056 DUCK FRF   0230      45                N/A     2/10
OREGON INLET NC  0236   54 50  210/ 13/ 16 1019.2R
HATTERAS NC      0248          230/  8/ 13 1019.2F
DIAMOND SHLS NC  0250   71 73  230/ 21/ 23 1019.3F   4/ 4   2/ 8
CAPE LOOKOUT NC  0200   64     220/ 10/ 14 1020.1F
$$




USA.gov is the U.S. government's official web portal to all federal, state and local government web resources and services.